FW9064 Weather Reports


Display with metric or nautical units.
time (UTC)temp
F
wind
direction
speed
MPH
gust
MPH
rain 1hr
in
rain 24hr
in
rain mn
in
humidity
%
barometer
mb
20260503203535 70 219 3.0 5.0 0.00 0.00 0.00 39 1019.1
20260503203032 70 124 2.0 2.0 0.00 0.00 0.00 45 1019.3
20260503202530 69 100 2.0 2.0 0.00 0.00 0.00 41 1019.1
20260503202027 70 114 1.0 1.0 0.00 0.00 0.00 42 1019.3
20260503201526 70 103 0.0 1.0 0.00 0.00 0.00 42 1019.5
20260503201022 70 117 1.0 2.0 0.00 0.00 0.00 45 1019.7
20260503200518 69 115 1.0 1.0 0.00 0.00 0.00 43 1019.7
20260503200015 70 104 2.0 2.0 0.00 0.00 0.00 40 1019.7
20260503195513 70 83 1.0 1.0 0.00 0.00 0.00 39 1019.6
20260503195009 70 84 1.0 2.0 0.00 0.00 0.00 38 1019.8
20260503194507 71 91 3.0 5.0 0.00 0.00 0.00 37 1020.1
20260503194006 71 109 1.0 1.0 0.00 0.00 0.00 39 1020.2
20260503193503 70 106 0.0 1.0 0.00 0.00 0.00 38 1020.1
20260503192958 71 107 1.0 1.0 0.00 0.00 0.00 36 1020.2
20260503192455 72 118 1.0 1.0 0.00 0.00 0.00 37 1020.3
20260503191950 72 107 0.0 0.0 0.00 0.00 0.00 40 1020.3
20260503191448 71 104 1.0 2.0 0.00 0.00 0.00 37 1020.5
20260503190944 71 115 0.0 1.0 0.00 0.00 0.00 42 1020.7
20260503190442 72 109 2.0 2.0 0.00 0.00 0.00 39 1020.7
20260503185939 71 110 1.0 1.0 0.00 0.00 0.00 41 1020.9
20260503185435 71 86 2.0 2.0 0.00 0.00 0.00 37 1021.0
20260503184934 71 104 2.0 3.0 0.00 0.00 0.00 39 1021.0
20260503184431 72 114 3.0 3.0 0.00 0.00 0.00 40 1021.2
20260503183927 71 114 0.0 1.0 0.00 0.00 0.00 38 1021.0
20260503183424 72 182 2.0 5.0 0.00 0.00 0.00 39 1021.1
20260503182921 71 112 2.0 2.0 0.00 0.00 0.00 41 1021.1
20260503182420 71 113 2.0 2.0 0.00 0.00 0.00 37 1021.3
20260503181917 70 64 2.0 2.0 0.00 0.00 0.00 36 1021.4
20260503181414 71 103 1.0 1.0 0.00 0.00 0.00 38 1021.4
20260503180910 70 104 1.0 1.0 0.00 0.00 0.00 37 1021.5
20260503180408 71 52 2.0 3.0 0.00 0.00 0.00 39 1021.5
20260503175904 71 113 1.0 1.0 0.00 0.00 0.00 40 1021.7
20260503175403 71 120 0.0 0.0 0.00 0.00 0.00 41 1021.7
20260503174858 69 88 4.0 5.0 0.00 0.00 0.00 38 1021.7
20260503174356 69 102 1.0 2.0 0.00 0.00 0.00 39 1021.6
20260503173851 70 107 0.0 1.0 0.00 0.00 0.00 38 1021.6
20260503173348 71 103 1.0 1.0 0.00 0.00 0.00 40 1021.7
20260503172844 71 181 3.0 5.0 0.00 0.00 0.00 40 1021.8
20260503172342 70 182 2.0 3.0 0.00 0.00 0.00 41 1021.8
20260503171838 69 107 2.0 2.0 0.00 0.00 0.00 39 1021.9
20260503171335 69 92 3.0 3.0 0.00 0.00 0.00 39 1021.9
20260503170832 69 137 1.0 1.0 0.00 0.00 0.00 39 1021.9
20260503170329 68 113 1.0 1.0 0.00 0.00 0.00 38 1022.3
20260503150721 62 116 1.0 1.0 0.00 0.00 0.00 55 1022.8
20260503150217 63 66 3.0 5.0 0.00 0.00 0.00 50 1022.5
20260503140142 59 109 0.0 0.0 0.00 0.00 0.00 66 1022.1
20260503131111 57 103 0.0 0.0 0.00 0.00 0.00 72 1022.0
20260503130609 57 106 0.0 0.0 0.00 0.00 0.00 77 1022.0
20260503130106 57 111 0.0 0.0 0.00 0.00 0.00 73 1022.1
20260503110458 41 109 0.0 0.0 0.00 0.00 0.00 99 1020.9
20260503090344 44 109 0.0 0.0 0.00 0.00 0.00 96 1020.1
20260503081312 46 111 0.0 0.0 0.00 0.00 0.00 93 1019.8
20260503080808 46 113 0.0 0.0 0.00 0.00 0.00 93 1019.7
20260503080305 46 109 0.0 0.0 0.00 0.00 0.00 92 1019.8
20260503072742 47 111 0.0 0.0 0.00 0.00 0.00 90 1019.5
20260503072238 47 114 0.0 0.0 0.00 0.00 0.00 89 1019.5
20260503071735 47 111 0.0 0.0 0.00 0.00 0.00 90 1019.4
20260503071232 47 109 0.0 0.0 0.00 0.00 0.00 90 1019.3
20260503070728 47 112 0.0 0.0 0.00 0.00 0.00 90 1019.5
20260503070226 47 106 0.0 0.0 0.00 0.00 0.00 90 1019.3
20260503060145 46 113 0.0 0.0 0.00 0.00 0.00 97 1019.4
20260503054632 45 109 0.0 0.0 0.00 0.00 0.00 97 1019.3
20260503054129 45 107 0.0 0.0 0.00 0.00 0.00 97 1019.2
20260503053627 45 110 0.0 0.0 0.00 0.00 0.00 97 1019.2
20260503053126 45 109 0.0 0.0 0.00 0.00 0.00 97 1019.0
20260503052622 45 106 0.0 0.0 0.00 0.00 0.00 97 1019.0
20260503052118 45 110 0.0 0.0 0.00 0.00 0.00 97 1019.1
20260503051614 45 109 0.0 0.0 0.00 0.00 0.00 97 1019.0
20260503051112 45 109 0.0 0.0 0.00 0.00 0.00 97 1018.9
20260503050608 45 110 0.0 0.0 0.00 0.00 0.00 96 1018.7
20260503050105 45 109 0.0 0.0 0.00 0.02 0.02 96 1018.7
20260503045602 45 109 0.0 0.0 0.00 0.02 0.02 96 1018.7
20260503045059 45 112 0.0 0.0 0.00 0.02 0.02 96 1018.7
20260503044555 46 110 0.0 0.0 0.00 0.02 0.02 95 1018.5
20260503044053 46 110 0.0 0.0 0.00 0.02 0.02 95 1018.6
20260503043549 46 110 0.0 0.0 0.00 0.02 0.02 95 1018.4
20260503043046 46 110 0.0 0.0 0.00 0.02 0.02 95 1018.2
20260503042543 46 111 0.0 0.0 0.00 0.02 0.02 94 1018.6
20260503042039 46 109 0.0 0.0 0.00 0.02 0.02 94 1018.3
20260503041536 46 109 0.0 0.0 0.00 0.02 0.02 94 1018.4
20260503041034 47 110 0.0 0.0 0.00 0.02 0.02 94 1018.2
20260503040531 47 110 0.0 0.0 0.00 0.02 0.02 94 1018.2
20260503040028 46 108 0.0 0.0 0.00 0.02 0.02 93 1018.3
20260503035525 46 110 0.0 0.0 0.00 0.02 0.02 93 1018.3
20260503035022 47 110 0.0 0.0 0.00 0.02 0.02 93 1018.1
20260503034520 47 109 0.0 0.0 0.00 0.02 0.02 92 1018.1
20260503034016 47 111 0.0 0.0 0.00 0.02 0.02 92 1018.0
20260503033514 47 109 0.0 0.0 0.00 0.02 0.02 92 1018.1
20260503033012 47 111 0.0 0.0 0.00 0.02 0.02 91 1018.2
20260503032510 47 111 0.0 0.0 0.00 0.02 0.02 91 1018.1
20260503032008 48 113 0.0 0.0 0.00 0.02 0.02 90 1018.1
20260503031505 48 109 0.0 0.0 0.00 0.02 0.02 90 1017.9
20260503031002 48 111 0.0 0.0 0.00 0.02 0.02 89 1018.0
20260503030458 48 112 0.0 0.0 0.00 0.02 0.02 89 1018.1
20260503025955 49 110 0.0 0.0 0.00 0.02 0.02 89 1018.2
20260503025452 49 110 0.0 0.0 0.00 0.02 0.02 88 1018.1
20260503024949 49 111 0.0 0.0 0.00 0.02 0.02 87 1018.1
20260503024445 49 110 0.0 0.0 0.00 0.02 0.02 87 1018.1
20260503023943 50 113 0.0 0.0 0.00 0.02 0.02 86 1017.9
20260503023440 50 115 0.0 0.0 0.00 0.02 0.02 86 1017.9
20260503022937 50 111 0.0 0.0 0.00 0.02 0.02 85 1017.8
20260503022432 50 112 0.0 0.0 0.00 0.02 0.02 84 1018.0
20260503021928 50 111 0.0 0.0 0.00 0.02 0.02 83 1017.8
20260503021424 50 110 0.0 0.0 0.00 0.02 0.02 82 1017.7
20260503020922 51 109 0.0 0.0 0.00 0.02 0.02 82 1017.6
20260503020419 51 112 0.0 0.0 0.00 0.02 0.02 82 1017.6
20260503015915 51 111 0.0 0.0 0.00 0.02 0.02 80 1017.3
20260503015413 51 112 0.0 0.0 0.00 0.02 0.02 79 1017.3
20260503014908 52 111 0.0 0.0 0.00 0.02 0.02 79 1017.5
20260503014406 52 110 0.0 0.0 0.00 0.02 0.02 77 1017.2
20260503013904 53 110 0.0 0.0 0.00 0.02 0.02 76 1017.2
20260503013400 53 110 0.0 0.0 0.00 0.02 0.02 75 1017.0
20260503012857 53 110 0.0 0.0 0.00 0.02 0.02 74 1017.0
20260503012355 54 107 0.0 0.0 0.00 0.02 0.02 72 1016.8
20260503011852 54 110 0.0 0.0 0.00 0.02 0.02 71 1017.0
20260503011349 55 109 0.0 0.0 0.00 0.02 0.02 70 1016.8
20260503010845 55 111 0.0 0.0 0.00 0.02 0.02 71 1016.6
20260503010342 56 110 0.0 0.0 0.00 0.02 0.02 72 1016.5
20260503005839 56 110 0.0 0.0 0.00 0.02 0.02 71 1016.6
20260503005337 57 109 0.0 0.0 0.00 0.02 0.02 70 1016.5
20260503004832 57 111 0.0 0.0 0.00 0.02 0.02 68 1016.5
20260503004330 58 111 0.0 0.0 0.00 0.02 0.02 64 1016.5
20260503003828 59 110 0.0 0.0 0.00 0.02 0.02 65 1016.5
20260503003324 59 111 0.0 0.0 0.00 0.02 0.02 61 1016.4
20260503002821 60 111 0.0 0.0 0.00 0.02 0.02 57 1016.2
20260503002318 61 111 0.0 0.0 0.00 0.02 0.02 58 1016.1
20260503001815 61 112 0.0 0.0 0.00 0.02 0.02 53 1016.2
20260503001311 62 110 0.0 0.0 0.00 0.02 0.02 52 1016.1
20260503000809 62 111 0.0 0.0 0.00 0.02 0.02 50 1016.3
20260503000306 63 114 0.0 0.0 0.00 0.02 0.02 49 1015.9
20260502235803 63 108 0.0 0.0 0.00 0.02 0.02 47 1015.9
20260502235300 63 113 0.0 0.0 0.00 0.02 0.02 48 1015.9
20260502234757 64 114 0.0 0.0 0.00 0.02 0.02 47 1015.5
20260502234254 64 113 0.0 0.0 0.00 0.02 0.02 45 1015.4
20260502233750 65 112 1.0 1.0 0.00 0.02 0.02 43 1015.5
20260502233247 65 109 0.0 0.0 0.00 0.02 0.02 41 1015.8
20260502232743 65 113 0.0 1.0 0.00 0.02 0.02 43 1015.6
20260502232240 65 103 1.0 1.0 0.00 0.02 0.02 41 1015.3
20260502231736 65 98 1.0 1.0 0.00 0.02 0.02 40 1015.3
20260502231234 66 112 0.0 1.0 0.00 0.02 0.02 40 1015.4
20260502230733 66 108 1.0 1.0 0.00 0.02 0.02 43 1015.4
20260502230231 66 107 1.0 1.0 0.00 0.02 0.02 43 1015.5
20260502225726 66 111 0.0 1.0 0.00 0.02 0.02 44 1015.5
20260502225224 67 93 0.0 1.0 0.00 0.02 0.02 42 1015.6
20260502224720 67 116 0.0 0.0 0.00 0.02 0.02 44 1015.4
20260502224217 67 108 1.0 1.0 0.00 0.02 0.02 44 1015.4
20260502223714 68 104 0.0 1.0 0.00 0.02 0.02 43 1015.2
20260502223212 68 109 1.0 1.0 0.00 0.02 0.02 39 1015.5
20260502222710 68 118 1.0 1.0 0.00 0.02 0.02 40 1015.6
20260502222206 68 85 2.0 3.0 0.00 0.02 0.02 38 1015.3
20260502221702 68 79 2.0 6.0 0.00 0.02 0.02 39 1015.3
20260502221159 68 113 0.0 0.0 0.00 0.02 0.02 40 1015.1
20260502220655 68 112 2.0 2.0 0.00 0.02 0.02 39 1015.2
20260502220152 68 116 1.0 1.0 0.00 0.02 0.02 43 1015.5
20260502215649 68 108 1.0 2.0 0.00 0.02 0.02 41 1015.4
20260502215145 68 83 2.0 2.0 0.00 0.02 0.02 40 1015.3
20260502214643 69 96 3.0 3.0 0.00 0.02 0.02 39 1015.1
20260502214140 69 114 1.0 2.0 0.00 0.02 0.02 39 1015.3
20260502213637 69 71 1.0 2.0 0.00 0.02 0.02 43 1015.1
20260502213134 69 83 1.0 2.0 0.00 0.02 0.02 40 1015.1
20260502212633 68 112 1.0 1.0 0.00 0.02 0.02 41 1014.9
20260502212131 69 146 3.0 5.0 0.00 0.02 0.02 38 1015.0
20260502211626 69 135 1.0 2.0 0.00 0.02 0.02 41 1015.3
20260502211124 69 99 2.0 2.0 0.00 0.02 0.02 37 1015.1
20260502210621 69 100 0.0 0.0 0.00 0.02 0.02 37 1015.1
20260502210118 69 141 1.0 1.0 0.00 0.02 0.02 37 1015.1
20260502205614 69 92 1.0 1.0 0.00 0.02 0.02 38 1015.2
20260502205111 68 122 1.0 1.0 0.00 0.02 0.02 41 1015.2
20260502204608 68 93 1.0 1.0 0.00 0.02 0.02 37 1015.2
20260502204106 68 113 2.0 3.0 0.00 0.02 0.02 37 1015.3